When you browse on this site, cookies collect data to enhance your experience and personalize the content and advertising you see.
Visit our Privacy Policy to learn more. By continuing to use the site, you agree to this use of cookies and data.
  • In Österreich
  • Länderverzeichnis
  • Für 7 Tage
  • Wassertemperatur
  • Satellitenkarten
  • Wetterkarte
  • News
  • Widgets
  • user-avatar
    Anmelden

    Stündliche Wetter Quito

    Heute, 17 Februar, Sonntag

    Zeit Temperatur Niederschläge Wind Luftdruck Luftfeuchtigkeit
    00:00 +18°C° 0.3 mm 1 m/S 623 mmHg 93%
    01:00 +16°C° 0.3 mm 1 m/S 623 mmHg 93%
    02:00 +16°C° 0.1 mm 1 m/S 622 mmHg 93%
    03:00 +16°C° 0.1 mm 1 m/S 622 mmHg 93%
    04:00 +16°C° 0.1 mm 1 m/S 622 mmHg 93%
    05:00 +18°C° 0 mm 1 m/S 623 mmHg 93%
    06:00 +18°C° 0 mm 1 m/S 623 mmHg 93%
    07:00 +18°C° 0 mm 1 m/S 624 mmHg 93%
    08:00 +20°C° 0.1 mm 1 m/S 624 mmHg 86%
    09:00 +22°C° 0.1 mm 1 m/S 625 mmHg 79%
    10:00 +24°C° 0.1 mm 1 m/S 625 mmHg 72%
    11:00 +25°C° 0.5 mm 1 m/S 625 mmHg 65%
    12:00 +27°C° 0.5 mm 1 m/S 626 mmHg 58%
    13:00 +29°C° 0.5 mm 1 m/S 626 mmHg 51%
    14:00 +28°C° 0 mm 1 m/S 625 mmHg 51%
    15:00 +28°C° 0 mm 2 m/S 624 mmHg 52%
    16:00 +28°C° 0 mm 2 m/S 624 mmHg 52%
    17:00 +25°C° 0 mm 1 m/S 623 mmHg 60%
    18:00 +23°C° 0 mm 1 m/S 622 mmHg 68%
    19:00 +19°C° 0 mm 0 m/S 622 mmHg 76%
    20:00 +20°C° 0 mm 1 m/S 622 mmHg 77%
    21:00 +20°C° 0 mm 1 m/S 622 mmHg 78%
    22:00 +19°C° 0 mm 1 m/S 623 mmHg 79%
    23:00 +19°C° 0 mm 1 m/S 623 mmHg 76%

    Morgen, 18 Februar, Montag

    Zeit Temperatur Niederschläge Wind Luftdruck Luftfeuchtigkeit
    00:00 +20°C° 0 mm 1 m/S 623 mmHg 73%
    01:00 +20°C° 0 mm 1 m/S 623 mmHg 70%
    02:00 +19°C° 0 mm 1 m/S 622 mmHg 69%
    03:00 +18°C° 0 mm 1 m/S 622 mmHg 68%
    04:00 +18°C° 0 mm 1 m/S 621 mmHg 67%
    05:00 +18°C° 0 mm 1 m/S 622 mmHg 69%
    06:00 +18°C° 0 mm 1 m/S 622 mmHg 71%
    07:00 +18°C° 0 mm 1 m/S 622 mmHg 73%
    08:00 +20°C° 0 mm 2 m/S 623 mmHg 66%
    09:00 +23°C° 0 mm 2 m/S 624 mmHg 59%
    10:00 +26°C° 0 mm 2 m/S 624 mmHg 52%
    11:00 +27°C° 0 mm 2 m/S 624 mmHg 47%
    12:00 +28°C° 0 mm 2 m/S 624 mmHg 43%
    13:00 +29°C° 0 mm 2 m/S 624 mmHg 38%
    14:00 +29°C° 0 mm 2 m/S 623 mmHg 41%
    15:00 +29°C° 0 mm 2 m/S 622 mmHg 43%
    16:00 +29°C° 0 mm 2 m/S 622 mmHg 46%
    17:00 +26°C° 0 mm 1 m/S 621 mmHg 51%
    18:00 +24°C° 0 mm 1 m/S 621 mmHg 57%
    19:00 +22°C° 0 mm 1 m/S 621 mmHg 63%
    20:00 +21°C° 0 mm 1 m/S 621 mmHg 66%
    21:00 +21°C° 0 mm 1 m/S 622 mmHg 70%
    22:00 +21°C° 0 mm 1 m/S 622 mmHg 73%
    23:00 +20°C° 1.5 mm 1 m/S 622 mmHg 79%

    übermorgen, 19 Februar, Dienstag

    Zeit Temperatur Niederschläge Wind Luftdruck Luftfeuchtigkeit
    00:00 +19°C° 1.5 mm 1 m/S 622 mmHg 85%
    01:00 +19°C° 1.5 mm 1 m/S 621 mmHg 92%
    02:00 +19°C° 1.3 mm 1 m/S 621 mmHg 91%
    03:00 +19°C° 1.3 mm 1 m/S 621 mmHg 91%
    04:00 +19°C° 1.3 mm 1 m/S 621 mmHg 91%
    05:00 +19°C° 0 mm 1 m/S 621 mmHg 90%
    06:00 +19°C° 0 mm 1 m/S 622 mmHg 89%
    07:00 +18°C° 0 mm 0 m/S 622 mmHg 88%
    08:00 +20°C° 1.2 mm 0 m/S 623 mmHg 82%
    09:00 +22°C° 1.2 mm 0 m/S 624 mmHg 75%
    10:00 +24°C° 1.2 mm 0 m/S 624 mmHg 69%
    11:00 +26°C° 0.2 mm 1 m/S 624 mmHg 63%
    12:00 +27°C° 0.2 mm 1 m/S 624 mmHg 57%
    13:00 +28°C° 0.2 mm 2 m/S 623 mmHg 51%
    14:00 +27°C° 0.5 mm 2 m/S 623 mmHg 54%
    15:00 +27°C° 0.5 mm 1 m/S 622 mmHg 58%
    16:00 +26°C° 0.5 mm 1 m/S 621 mmHg 62%
    17:00 +24°C° 1.4 mm 1 m/S 621 mmHg 71%
    18:00 +21°C° 1.4 mm 2 m/S 621 mmHg 80%
    19:00 +19°C° 1.4 mm 2 m/S 621 mmHg 89%
    20:00 +18°C° 0.3 mm 2 m/S 621 mmHg 90%
    21:00 +18°C° 0.3 mm 2 m/S 621 mmHg 91%
    22:00 +17°C° 0.3 mm 2 m/S 622 mmHg 93%
    23:00 +18°C° 0.8 mm 1 m/S 621 mmHg 93%

    20 Februar, Mittwoch

    Zeit Temperatur Niederschläge Wind Luftdruck Luftfeuchtigkeit
    00:00 +18°C° 0.8 mm 1 m/S 621 mmHg 94%
    01:00 +16°C° 0.8 mm 1 m/S 621 mmHg 94%
    02:00 +18°C° 0.5 mm 1 m/S 621 mmHg 94%
    03:00 +18°C° 0.5 mm 1 m/S 621 mmHg 94%
    04:00 +18°C° 0.5 mm 1 m/S 621 mmHg 94%
    05:00 +18°C° 0.3 mm 1 m/S 621 mmHg 93%
    06:00 +16°C° 0.3 mm 0 m/S 622 mmHg 93%
    07:00 +17°C° 0.3 mm 0 m/S 623 mmHg 92%
    08:00 +18°C° 0.6 mm 0 m/S 623 mmHg 87%
    09:00 +21°C° 0.6 mm 1 m/S 624 mmHg 82%
    10:00 +22°C° 0.6 mm 1 m/S 624 mmHg 77%
    11:00 +23°C° 0.4 mm 2 m/S 624 mmHg 71%
    12:00 +25°C° 0.4 mm 2 m/S 624 mmHg 65%
    13:00 +26°C° 0.4 mm 3 m/S 623 mmHg 59%
    14:00 +25°C° 0.6 mm 3 m/S 623 mmHg 65%
    15:00 +24°C° 0.6 mm 2 m/S 622 mmHg 71%
    16:00 +24°C° 0.6 mm 2 m/S 622 mmHg 77%
    17:00 +21°C° 0.9 mm 2 m/S 622 mmHg 82%
    18:00 +19°C° 0.9 mm 2 m/S 622 mmHg 88%
    19:00 +18°C° 0.9 mm 2 m/S 622 mmHg 93%
    20:00 +19°C° 0.2 mm 1 m/S 622 mmHg 93%
    21:00 +18°C° 0.2 mm 1 m/S 623 mmHg 93%
    22:00 +18°C° 0.2 mm 1 m/S 623 mmHg 93%
    23:00 +18°C° 0.4 mm 1 m/S 623 mmHg 93%

    21 Februar, Donnerstag

    Zeit Temperatur Niederschläge Wind Luftdruck Luftfeuchtigkeit
    00:00 +18°C° 0.4 mm 1 m/S 623 mmHg 93%
    01:00 +18°C° 0.4 mm 1 m/S 622 mmHg 94%
    02:00 +18°C° 0.4 mm 1 m/S 622 mmHg 94%
    03:00 +18°C° 0.4 mm 1 m/S 622 mmHg 94%
    04:00 +16°C° 0.4 mm 1 m/S 621 mmHg 94%
    05:00 +16°C° 0.2 mm 0 m/S 622 mmHg 92%
    06:00 +16°C° 0.2 mm 0 m/S 623 mmHg 91%
    07:00 +17°C° 0.2 mm 0 m/S 623 mmHg 89%
    08:00 +21°C° 0 mm 1 m/S 624 mmHg 80%
    09:00 +23°C° 0 mm 2 m/S 625 mmHg 70%
    10:00 +24°C° 0 mm 2 m/S 625 mmHg 60%
    11:00 +25°C° 0.1 mm 2 m/S 625 mmHg 60%
    12:00 +25°C° 0.1 mm 3 m/S 624 mmHg 61%
    13:00 +26°C° 0.1 mm 3 m/S 624 mmHg 61%
    14:00 +25°C° 0.8 mm 2 m/S 623 mmHg 65%
    15:00 +25°C° 0.8 mm 2 m/S 623 mmHg 69%
    16:00 +25°C° 0.8 mm 2 m/S 622 mmHg 73%
    17:00 +23°C° 1.5 mm 1 m/S 622 mmHg 77%
    18:00 +22°C° 1.5 mm 1 m/S 622 mmHg 81%
    19:00 +20°C° 1.5 mm 1 m/S 622 mmHg 85%
    20:00 +19°C° 0 mm 1 m/S 622 mmHg 86%
    21:00 +19°C° 0 mm 1 m/S 623 mmHg 87%
    22:00 +18°C° 0 mm 1 m/S 623 mmHg 89%
    23:00 +18°C° 0.1 mm 1 m/S 622 mmHg 89%

    22 Februar, Freitag

    Zeit Temperatur Niederschläge Wind Luftdruck Luftfeuchtigkeit
    00:00 +18°C° 0.1 mm 1 m/S 622 mmHg 90%
    01:00 +16°C° 0.1 mm 1 m/S 622 mmHg 91%
    02:00 +16°C° 0 mm 1 m/S 621 mmHg 91%
    03:00 +16°C° 0 mm 1 m/S 621 mmHg 92%
    04:00 +16°C° 0 mm 1 m/S 621 mmHg 92%
    05:00 +16°C° 0 mm 1 m/S 622 mmHg 90%
    06:00 +18°C° 0 mm 1 m/S 623 mmHg 88%
    07:00 +17°C° 0 mm 0 m/S 623 mmHg 86%
    08:00 +21°C° 0 mm 1 m/S 624 mmHg 76%
    09:00 +23°C° 0 mm 2 m/S 624 mmHg 67%
    10:00 +26°C° 0 mm 3 m/S 625 mmHg 58%
    11:00 +26°C° 0 mm 3 m/S 624 mmHg 54%
    12:00 +27°C° 0 mm 3 m/S 624 mmHg 51%
    13:00 +28°C° 0 mm 3 m/S 624 mmHg 48%
    14:00 +27°C° 0 mm 3 m/S 623 mmHg 49%
    15:00 +27°C° 0 mm 2 m/S 623 mmHg 50%
    16:00 +27°C° 0 mm 2 m/S 622 mmHg 51%
    17:00 +25°C° 0 mm 1 m/S 622 mmHg 56%
    18:00 +23°C° 0 mm 1 m/S 622 mmHg 61%
    19:00 +21°C° 0 mm 1 m/S 622 mmHg 66%
    20:00 +21°C° 0 mm 1 m/S 622 mmHg 70%
    21:00 +20°C° 0 mm 1 m/S 622 mmHg 74%
    22:00 +19°C° 0 mm 1 m/S 623 mmHg 78%
    23:00 +19°C° 0 mm 1 m/S 622 mmHg 82%
    Mehr zeigen